Regional Weather Roundup
Issued by NWS

Home | Current Version | Previous Version | Graphics & Text | Print | Product List | Glossary On
Versions: 1 2 3 4 5 6 7 8 9 10 11 12 13 14 15 16 17 18 19 20 21 22 23 24 25 26 27 28 29 30 31 32 33 34 35 36 37 38 39 40 41 42 43 44 45 46 47 48 49 50
000
ASUS45 KBOU 251707
RWRCO

WEATHER ROUNDUP FOR COLORADO
NATIONAL WEATHER SERVICE DENVER/BOULDER CO
1100 AM MDT SUN JUN 25 2017

NOTE: "FAIR" INDICATES FEW OR NO CLOUDS BELOW 12000 FEET WITH NO
SIGNIFICANT WEATHER AND/OR OBSTRUCTIONS TO VISIBILITY.

COZ001>005-013-030-031-251800-
...NORTHWEST COLORADO...

CITY           SKY/WX    TMP DP  RH WIND       PRES   REMARKS
CRAIG          FAIR      73  33  23 NW5       30.35F
HAYDEN         FAIR      70  36  28 SW5       30.37S
MEEKER         FAIR      73  38  27 S6        30.35S
RABBIT EARS PA FAIR      55  28  35 W7        30.61R
STEAMBOAT SPGS FAIR      68  37  31 W3        30.37F
WALDEN         FAIR      64  32  29 SW3       30.46S
$$

COZ006>008-011-251800-
...WEST CENTRAL VALLEYS...

CITY           SKY/WX    TMP DP  RH WIND       PRES   REMARKS
GRAND JUNCTION FAIR      82  29  14 S8        30.21F
MONTROSE       FAIR      78  37  22 N7        30.28F
EAGLE          SUNNY     70  32  24 W3        30.38F
RIFLE          FAIR      77  34  21 MISG      30.28F
DELTA          FAIR      80  33  17 SW3       30.26S
NUCLA          FAIR      81  27  13 N3        30.31F
$$

COZ017>023-064>068-251800-
...SOUTHWEST COLORADO...

CITY           SKY/WX    TMP DP  RH WIND       PRES   REMARKS
DURANGO        FAIR      74  45  35 SE8       30.35F
CORTEZ         FAIR      82  43  25 CALM      30.28S
PAGOSA SPRINGS FAIR      73  38  28 W3        30.43F
TELLURIDE      FAIR      73  19  13 N3        30.52R
WOLF CREEK PAS FAIR      52  36  54 SW8       30.75S
$$

COZ009-010-012-014-032>034-037-058>063-251800-
...CENTRAL COLORADO...

CITY           SKY/WX    TMP DP  RH WIND       PRES   REMARKS
ASPEN          FAIR      71  32  23 VRB6      30.41F
BUENA VISTA    FAIR      66  40  37 SE6       30.44S
COPPER MTN     FAIR      55  18  22 NW18G25   30.69S
BERTHOUD PASS  FAIR      45  32  61 N8        30.72S
COTTONWOOD PAS FAIR      64  39  39 E6        30.56S
GUNNISON       FAIR      68  41  37 W5        30.43F
KREMMLING      NOT AVBL
LEADVILLE      FAIR      63  19  18 NW10G17   30.53F
MONARCH PASS   FAIR      55  28  35 SW17G28   30.81R
SALIDA         FAIR      70  45  40 NE3       30.47F
SUNLIGHT       FAIR      57  28  33 CALM      30.66R
WILKERSON PASS FAIR      55  32  41 CALM      30.68S
$$

COZ069>075-251800-
...SAN LUIS VALLEY/SANGRE DE CRISTO MOUNTAINS...

CITY           SKY/WX    TMP DP  RH WIND       PRES   REMARKS
ALAMOSA        FAIR      70  49  47 SW10      30.42S
DEL NORTE      FAIR      68  46  45 E6        30.44F
LA VETA PASS   PTSUNNY   63  46  55 MISG      30.70S
SAGUACHE       FAIR      70  45  40 S7        30.45S
$$

COZ035-036-038>040-251800-
...NORTHERN COLORADO FRONT RANGE...

CITY           SKY/WX    TMP DP  RH WIND       PRES   REMARKS
DENVER INTL AP FAIR      64  50  60 N10       30.38R
DMNS CITY PARK   N/A     63  51  63 NE6G18    30.38S
AURORA         MOSUNNY   63  51  64 NW7       30.38S
FRONT RANGE AP PTSUNNY   64  52  63 N10G21    30.38S
ERIE MUNI ARPT CLOUDY    61  50  68 N9        30.38S
BOULDER MUN AP CLOUDY    61  52  72 NE6       30.38S
CENTENNIAL     FAIR      63  51  65 N9        30.38S
BROOMFIELD     CLOUDY    61  50  67 N7        30.40S
FORT COLLINS   CLOUDY    63  49  60 NE7       30.38F
LONGMONT       CLOUDY    65  51  59 E8        30.39S HAZE
$$

COZ041-046-047-076>085-087-088-251800-
...PIKES PEAK/PALMER DIVIDE AND SOUTHERN FOOTHILLS...

CITY           SKY/WX    TMP DP  RH WIND       PRES   REMARKS
COLO. SPRINGS  PTSUNNY   71  52  50 SE5       30.37F
A. F. ACADEMY  FAIR      70  50  50 S8        30.38F
SCHRIEVER AFB  FAIR      69  50  50 SE7       30.38S
CHEYENNE MTN   PTSUNNY   67  52  59 E5        30.36S
ELLICOTT       FAIR     N/A N/A N/A S7        30.36S
FALCON           N/A     71  48  45 S7        30.42S
FORT CARSON    FAIR      69  53  57 CALM      30.34F
LIMON          PTSUNNY   69  54  58 SE13G20   30.35F
MONUMENT HILL  FAIR      64  48  55 E5        30.43S
CANON CITY     SUNNY     75  52  43 E5        30.31F
WALSENBURG     FAIR      73  52  46 NE5       30.35F
TRINIDAD       PTSUNNY   72  53  51 SW6       30.33F
$$

COZ042>045-048>051-090-091-251800-
...NORTHEAST COLORADO...

CITY           SKY/WX    TMP DP  RH WIND       PRES   REMARKS
GREELEY ARPT   CLOUDY    62  51  67 E9        30.38S
AKRON          CLOUDY    54  51  90 E14       30.38R
BURLINGTON     CLOUDY    61  53  75 E18G25    30.36F
WRAY           CLOUDY    59  52  77 E12G20    30.38S
YUMA           CLOUDY    52  52 100 E12       30.38R
STERLING       CLOUDY    61  48  63 SE13      30.36S
HOLYOKE        NOT AVBL
FORT MORGAN    CLOUDY    60  51  73 E13       30.38R
$$

COZ086-089-092>099-251800-
...SOUTHEAST COLORADO...

CITY           SKY/WX    TMP DP  RH WIND       PRES   REMARKS
PUEBLO         FAIR      75  55  49 E7        30.28F
LA JUNTA       FAIR      77  57  50 VRB3      30.27S
LAMAR          PTSUNNY   80  57  45 MISG      30.24F
SPRINGFIELD      N/A     66  62  87 S15       30.30S
$$



USA.gov is the U.S. government's official web portal to all federal, state and local government web resources and services.